Weather History for West Palm Beach, FL

Change the Weather History Date:

Saturday, October 20, 2012

  Actual Average Record
Temperature  
Mean Temperature 79 °F 78 °F  
Max Temperature 86 °F 84 °F 91 °F (1980)
Min Temperature 72 °F 71 °F 49 °F (1927)
Degree Days  
Heating Degree Days 0 0  
Month to date heating degree days 0 0  
Since 1 July heating degree days 0 0  
Cooling Degree Days 14 13  
Month to date cooling degree days 335 286  
Year to date cooling degree days 3752 3494  
Growing Degree Days 29 (Base 50)    
Moisture  
Dew Point 70 °F    
Average Humidity 78    
Maximum Humidity 94    
Minimum Humidity 61    
Precipitation  
Precipitation 0.00 in 0.15 in 5.15 in (1959)
Month to date precipitation 7.51 3.48  
Year to date precipitation 74.91 52.55  
Snow  
Snow 0.00 in - - ()
Month to date snowfall 0.0  
Since 1 July snowfall 0.0  
Since 1 September snowfall 0.0  
Snow Depth 0.00 in    
Sea Level Pressure  
Sea Level Pressure 29.88 in    
Wind  
Wind Speed 7 mph (NNW)    
Max Wind Speed 16 mph    
Max Gust Speed 20 mph    
Visibility 10 miles    
Events      
T = Trace of Precipitation, MM = Missing Value Source: NWS Daily Summary

Daily Weather History Graph

Daily Weather History Graph

Search for Another Location

Airport:

Trip Planner

Search our weather history database for the weather conditions in past years. The results will help you decide how hot, cold, wet, or windy it might be!

Date:

Astronomy

Oct. 20, 2012 Rise Set
Actual Time 7:22 AM EDT 6:46 PM EDT
Civil Twilight 6:59 AM EDT 7:10 PM EDT
Nautical Twilight 6:32 AM EDT 7:37 PM EDT
Astronomical Twilight 6:05 AM EDT 8:04 PM EDT
Moon 12:41 PM EDT (10/20) 11:45 PM EDT (10/20)
Length of Visible Light 12h 11m
Length of Day
11h 24m
Waxing Crescent, 34% of the Moon is Illuminated
Oct 20
Waxing Crescent
Oct 21
First Quarter
Oct 29
Full
Nov 6
Last Quarter
Nov 13
New

Hourly Weather History & Observations

Time (EDT) Temp. Heat Index Dew Point Humidity Pressure Visibility Wind Dir Wind Speed Gust Speed Precip Events Conditions
12:53 AM 75.9 °F - 73.0 °F 91% 29.86 in 10.0 mi South 5.8 mph - N/A   Partly Cloudy
1:53 AM 75.0 °F - 73.0 °F 94% 29.86 in 10.0 mi WSW 3.5 mph - N/A   Partly Cloudy
2:53 AM 73.9 °F - 72.0 °F 93% 29.85 in 10.0 mi SW 3.5 mph - N/A   Partly Cloudy
3:53 AM 73.0 °F - 72.0 °F 96% 29.85 in 10.0 mi WNW 4.6 mph - N/A   Partly Cloudy
4:53 AM 73.9 °F - 72.0 °F 93% 29.85 in 10.0 mi Calm Calm - N/A   Partly Cloudy
5:53 AM 73.0 °F - 71.1 °F 93% 29.86 in 10.0 mi West 5.8 mph - N/A   Partly Cloudy
6:53 AM 73.0 °F - 71.1 °F 93% 29.87 in 10.0 mi WNW 3.5 mph - N/A   Scattered Clouds
7:53 AM 73.0 °F - 71.1 °F 93% 29.88 in 10.0 mi WNW 3.5 mph - N/A   Scattered Clouds
8:08 AM 73.4 °F - 71.6 °F 94% 29.89 in 10.0 mi NW 3.5 mph - N/A   Mostly Cloudy
8:38 AM 77.0 °F - 71.6 °F 83% 29.90 in 10.0 mi NW 5.8 mph - N/A   Mostly Cloudy
8:53 AM 78.1 °F - 72.0 °F 81% 29.90 in 10.0 mi NW 11.5 mph - N/A   Mostly Cloudy
9:53 AM 80.1 °F 83.8 °F 72.0 °F 76% 29.92 in 10.0 mi NNW 10.4 mph - N/A   Scattered Clouds
10:53 AM 82.9 °F 87.5 °F 71.1 °F 67% 29.93 in 10.0 mi North 10.4 mph - N/A   Scattered Clouds
11:53 AM 84.0 °F 88.4 °F 70.0 °F 63% 29.92 in 10.0 mi NNW 10.4 mph - N/A   Mostly Cloudy
12:53 PM 84.9 °F 89.4 °F 70.0 °F 61% 29.90 in 10.0 mi North 12.7 mph - N/A   Scattered Clouds
1:53 PM 84.0 °F 87.8 °F 69.1 °F 61% 29.87 in 10.0 mi North 13.8 mph - N/A   Scattered Clouds
2:53 PM 82.0 °F 84.9 °F 68.0 °F 62% 29.86 in 10.0 mi NE 12.7 mph - N/A   Scattered Clouds
3:53 PM 82.0 °F 85.5 °F 69.1 °F 65% 29.85 in 10.0 mi NE 15.0 mph - N/A   Scattered Clouds
4:53 PM 82.9 °F 85.8 °F 68.0 °F 60% 29.85 in 10.0 mi NNE 10.4 mph - N/A   Partly Cloudy
5:53 PM 82.0 °F 84.9 °F 68.0 °F 62% 29.85 in 10.0 mi NNE 10.4 mph - N/A   Scattered Clouds
6:53 PM 80.1 °F 82.7 °F 68.0 °F 67% 29.87 in 10.0 mi NNE 8.1 mph - N/A   Scattered Clouds
7:53 PM 79.0 °F - 68.0 °F 69% 29.89 in 10.0 mi NNE 3.5 mph - N/A   Partly Cloudy
8:53 PM 78.1 °F - 69.1 °F 74% 29.91 in 10.0 mi Calm Calm - N/A   Partly Cloudy
9:53 PM 75.9 °F - 69.1 °F 79% 29.92 in 10.0 mi NNW 4.6 mph - N/A   Partly Cloudy
10:53 PM 75.0 °F - 69.1 °F 82% 29.93 in 10.0 mi NNW 4.6 mph - N/A   Partly Cloudy
11:53 PM 73.9 °F - 69.1 °F 85% 29.93 in 10.0 mi Calm Calm - N/A   Partly Cloudy